Wind_Speed
21 23 24 26 27 29 31 34 36 38 39 39 40 40 40 40 40 40 40 39 38 37 36 35 33 31 30 28 29 31 31 30 31 31 30 29 28 28 27 27 26 26 26
21 23 24 26 28 30 32 34 35 36 38 39 40 40 40 40 39 39 38 38 37 37 35 34 33 32 30 29 30 31 32 32 32 32 31 30 28 29 29 28 29 28 27
20 22 24 25 27 29 31 33 35 36 38 39 39 39 39 39 40 39 38 38 38 37 36 35 34 33 31 30 31 31 32 33 32 32 32 31 29 30 30 30 30 29 29
19 20 22 24 26 28 30 32 34 35 36 37 38 38 39 40 40 40 40 39 39 38 38 37 35 34 32 32 31 31 31 33 33 33 33 32 31 31 31 32 32 32 31
21 22 24 25 27 29 30 32 33 34 35 37 38 40 41 42 42 42 41 41 41 40 40 39 38 37 36 35 33 33 33 34 34 34 34 34 34 33 33 33 34 34 33
23 24 25 26 28 29 31 32 33 35 36 38 40 41 42 43 43 43 43 43 43 42 41 41 40 40 39 38 36 35 34 34 35 34 35 36 36 36 35 35 35 35 35
25 26 27 28 29 31 32 34 36 37 39 40 41 42 43 44 44 44 44 44 44 44 44 42 42 42 41 41 40 40 39 38 38 38 37 38 38 38 38 37 37 37 36
27 28 30 31 32 34 36 37 39 40 41 42 42 43 44 44 45 45 45 45 45 45 45 44 44 44 44 44 44 44 44 43 42 41 41 40 40 40 40 39 38 38 37
29 31 32 34 35 37 39 40 41 42 43 44 43 43 43 44 44 44 45 45 45 45 45 45 45 45 46 46 46 47 48 48 46 46 45 44 43 42 43 42 40 40 39
31 33 35 36 37 39 41 42 44 45 45 44 44 43 43 43 44 44 45 46 46 47 47 47 46 46 46 47 48 49 49 50 51 50 49 48 47 45 45 44 42 42 42
33 35 36 38 39 41 43 44 45 45 45 45 45 44 44 44 45 45 46 47 47 48 49 49 49 49 49 49 49 50 51 52 52 53 53 52 51 51 49 48 46 45 43
34 36 37 39 41 43 44 44 45 45 45 45 44 44 44 45 46 47 48 48 48 49 49 50 50 50 50 50 50 51 52 53 54 55 55 55 56 55 54 53 51 49 47
35 37 39 41 43 44 44 44 45 45 45 45 45 46 46 47 48 48 48 48 49 50 50 50 51 51 51 52 53 53 53 54 55 57 58 58 58 58 57 56 55 52 50
37 39 41 43 44 45 45 45 45 45 45 46 46 47 48 49 49 48 49 49 50 50 51 51 52 52 52 52 54 55 55 55 57 58 59 59 60 60 60 59 57 56 54
39 41 43 45 45 45 45 45 45 45 46 46 47 48 48 48 48 49 49 49 49 49 50 50 51 51 53 53 53 55 56 57 57 59 60 62 62 62 62 61 60 59 58
40 43 45 46 46 46 45 45 45 46 46 47 48 48 48 48 48 48 48 49 49 48 48 47 48 49 50 51 51 52 54 55 55 57 59 61 64 64 63 62 62 60 59
42 45 47 47 47 46 46 45 46 46 47 48 49 48 48 47 47 48 48 48 47 46 45 44 45 45 46 47 47 48 49 50 51 52 53 56 60 62 63 63 63 62 61
45 47 48 48 47 47 46 46 46 47 48 49 48 47 47 47 48 48 48 46 45 43 42 42 41 41 42 42 43 44 45 46 46 48 49 50 53 55 57 59 60 60 60
46 48 48 48 47 47 47 47 47 47 48 48 48 47 47 47 47 47 46 44 43 41 39 38 37 36 36 37 38 40 40 41 42 44 45 45 46 47 50 52 54 56 57
48 48 48 48 48 47 47 47 47 48 48 47 47 47 47 47 46 45 44 42 40 38 36 34 32 31 31 31 32 34 35 37 37 38 40 41 42 42 42 45 47 50 52
48 48 49 48 48 48 47 47 47 48 47 47 47 47 47 46 44 42 40 38 36 35 32 30 28 27 26 26 27 28 29 31 33 34 36 37 38 39 38 38 40 43 46
47 48 48 48 48 47 47 47 47 47 47 47 47 46 45 43 42 40 37 35 33 32 30 28 25 22 22 22 23 24 25 27 29 31 33 34 35 35 35 36 36 37 40
47 48 48 48 47 47 46 46 46 46 46 46 46 44 42 42 40 38 35 33 31 30 28 25 22 19 17 17 18 20 22 24 26 27 29 30 31 31 32 33 34 34 35
47 48 47 47 46 46 46 46 46 45 45 45 44 42 41 40 39 36 34 31 30 28 25 21 18 15 12 12 14 16 19 21 23 25 26 27 28 29 29 30 31 31 32
47 47 47 47 46 45 45 45 45 44 44 44 43 41 40 39 37 34 32 30 29 26 22 19 16 12 10 9 9 12 15 18 21 23 25 25 26 27 27 27 28 29 30
47 47 46 46 46 45 44 44 43 43 42 42 41 40 39 37 35 33 31 30 27 24 21 18 15 12 9 6 6 9 12 16 18 21 23 23 24 25 26 26 26 27 28
Wind_Direction
280 279 279 280 280 281 281 282 286 287 288 290 291 291 292 292 292 290 291 291 291 290 290 289 288 284 282 277 268 263 261 259 255 252 247 247 245 242 241 240 240 237 236
282 281 281 280 281 282 283 285 287 288 289 290 291 291 291 290 290 290 290 290 289 289 288 287 285 282 280 275 270 264 259 256 254 250 245 244 243 241 240 240 239 237 236
287 286 286 287 286 286 286 287 289 290 290 292 292 291 290 289 289 289 289 289 287 286 285 283 283 280 278 274 270 263 260 253 250 247 243 243 243 241 241 239 237 236 235
296 294 293 293 292 292 292 291 293 293 293 293 293 292 292 291 290 289 289 288 287 285 283 282 280 277 275 275 272 261 259 253 249 245 243 242 241 240 240 238 237 236 234
303 301 300 298 297 297 297 297 297 297 296 295 295 294 294 293 292 290 289 287 286 284 282 280 279 277 273 272 269 263 260 254 251 247 242 241 240 239 240 239 238 236 234
308 307 305 304 303 302 302 302 302 301 300 299 298 297 296 294 293 291 290 288 286 283 281 279 277 275 272 269 266 262 258 255 253 250 245 241 241 241 240 238 237 235 234
314 312 310 309 308 307 306 306 305 304 303 302 300 299 297 295 294 292 290 288 286 284 281 279 276 274 271 267 263 260 257 255 253 251 247 243 241 240 240 238 237 235 233
315 314 314 313 312 311 311 310 309 308 306 305 303 301 299 297 295 293 291 289 287 285 282 279 276 273 270 266 263 260 257 254 252 249 247 245 241 240 240 239 237 234 234
318 318 317 316 315 314 313 312 311 310 309 307 305 303 300 299 297 294 292 290 288 285 282 280 276 273 269 265 263 260 257 254 252 250 247 245 244 242 241 240 238 236 235
320 320 319 318 317 316 315 314 313 312 311 309 306 304 302 300 298 296 293 291 288 285 282 280 276 273 269 265 262 259 256 255 253 251 248 245 243 243 241 239 238 237 236
322 321 321 320 319 318 317 315 314 313 312 310 308 305 303 302 300 297 295 292 289 285 282 279 277 273 269 265 261 258 256 254 252 251 249 246 244 243 241 240 238 237 236
322 322 322 321 320 319 317 316 315 314 313 311 309 307 305 303 302 299 296 293 290 286 283 279 276 273 269 265 262 258 255 253 252 250 249 248 246 244 242 241 240 238 238
324 324 324 323 322 320 318 317 316 315 314 313 310 308 306 305 303 301 298 295 292 288 284 280 275 272 269 266 263 259 256 253 251 250 249 247 246 244 243 242 241 240 239
326 326 326 325 323 322 320 319 317 316 315 314 312 310 308 307 305 302 299 297 294 290 286 281 276 273 269 265 263 260 257 254 252 249 248 246 245 244 243 242 241 240 240
327 327 327 326 325 324 322 320 319 317 316 315 313 312 310 308 306 304 302 300 297 292 288 282 277 273 269 266 263 260 257 254 252 249 247 245 244 243 243 243 241 240 239
328 329 329 328 327 325 324 322 320 319 318 317 316 314 312 311 309 308 305 303 299 295 290 285 279 276 272 267 262 259 256 253 251 249 247 246 244 243 242 242 242 241 240
331 332 331 330 328 327 326 323 322 321 320 319 318 316 315 314 312 311 308 306 302 298 293 288 282 277 272 266 260 257 254 251 249 248 246 245 244 243 242 241 241 240 240
333 333 332 331 330 329 328 325 324 323 323 322 321 319 318 317 316 314 312 309 305 300 296 292 286 280 274 266 259 256 252 248 246 244 243 243 243 243 242 241 240 239 239
333 333 332 332 331 331 330 328 327 326 325 324 323 321 320 320 319 318 316 312 309 305 300 296 290 283 275 266 259 254 248 245 242 241 240 239 239 240 239 238 238 237 236
333 333 333 333 332 332 331 330 329 329 328 327 326 324 323 323 322 321 319 317 314 310 306 300 293 287 277 267 258 251 245 242 239 237 236 235 235 235 235 235 234 234 234
334 334 334 334 333 333 333 332 332 331 330 330 329 328 327 326 325 325 324 323 320 317 313 306 298 289 278 267 257 250 244 239 235 234 233 232 231 231 231 229 229 230 230
335 335 335 335 334 334 334 334 334 334 333 333 332 331 331 330 330 329 329 327 326 323 320 314 305 293 279 267 257 247 240 235 233 232 230 228 226 227 227 225 225 226 226
336 336 336 336 336 335 336 336 336 336 336 336 335 335 334 334 333 333 333 332 329 328 325 321 314 303 285 268 255 244 236 230 227 225 223 222 223 223 222 221 221 222 224
336 337 337 338 337 337 337 337 338 338 339 339 339 338 338 337 337 337 337 337 335 333 332 329 323 312 295 271 253 240 230 225 223 220 218 216 217 217 217 217 218 220 222
336 338 338 339 339 338 338 339 339 340 341 341 342 342 341 341 341 341 341 341 340 340 340 337 333 324 307 281 252 234 223 218 216 213 210 210 212 213 213 214 217 220 223
337 338 339 340 340 340 339 340 341 341 342 343 344 345 345 345 345 346 345 345 345 345 344 344 340 333 322 298 257 230 216 210 206 204 205 208 210 210 212 215 218 222 224
Height
5857 5856 5856 5855 5854 5852 5851 5849 5847 5845 5843 5840 5837 5834 5832 5829 5826 5824 5822 5819 5817 5815 5813 5811 5809 5808 5807 5806 5807 5808 5809 5811 5814 5817 5820 5823 5825 5828 5831 5834 5838 5841 5844
5853 5852 5851 5850 5848 5847 5845 5843 5841 5838 5835 5832 5830 5827 5824 5821 5818 5816 5814 5812 5810 5807 5805 5804 5803 5801 5800 5799 5799 5800 5801 5804 5806 5809 5812 5815 5819 5821 5824 5828 5831 5835 5838
5848 5847 5846 5844 5842 5841 5838 5836 5834 5831 5828 5825 5821 5818 5815 5812 5810 5807 5805 5803 5801 5799 5797 5796 5795 5794 5793 5793 5792 5792 5794 5795 5798 5801 5804 5807 5811 5814 5818 5821 5824 5828 5831
5844 5842 5840 5839 5836 5834 5832 5829 5826 5823 5820 5816 5813 5809 5806 5803 5800 5798 5796 5794 5792 5790 5789 5787 5787 5786 5786 5786 5785 5785 5786 5788 5790 5793 5796 5799 5803 5807 5811 5814 5817 5821 5824
5840 5838 5835 5833 5830 5828 5825 5822 5819 5815 5812 5808 5804 5800 5797 5793 5790 5787 5785 5784 5781 5780 5779 5778 5777 5777 5777 5777 5777 5778 5779 5780 5782 5785 5788 5791 5794 5798 5802 5806 5810 5814 5817
5835 5833 5830 5827 5824 5821 5817 5814 5810 5807 5803 5799 5795 5790 5786 5782 5779 5776 5774 5772 5770 5768 5767 5767 5766 5766 5766 5767 5768 5769 5770 5772 5774 5776 5779 5783 5786 5790 5794 5797 5801 5805 5810
5831 5827 5824 5821 5818 5814 5810 5806 5802 5798 5793 5789 5784 5780 5775 5771 5768 5765 5762 5760 5758 5756 5755 5755 5755 5755 5755 5756 5758 5759 5761 5763 5765 5767 5770 5773 5777 5781 5785 5789 5792 5797 5801
5826 5822 5818 5814 5810 5806 5802 5797 5792 5788 5783 5778 5774 5769 5764 5760 5756 5753 5750 5747 5745 5743 5742 5741 5741 5742 5742 5743 5745 5747 5749 5752 5754 5757 5760 5763 5767 5771 5775 5779 5783 5788 5792
5821 5817 5812 5808 5803 5798 5793 5788 5782 5777 5772 5767 5762 5758 5753 5748 5744 5741 5737 5734 5732 5729 5728 5727 5727 5727 5728 5729 5731 5733 5736 5738 5742 5745 5748 5752 5756 5760 5765 5769 5774 5779 5783
5816 5811 5806 5801 5796 5790 5785 5779 5773 5767 5761 5755 5750 5745 5741 5736 5732 5728 5725 5721 5719 5716 5714 5713 5712 5713 5713 5714 5716 5718 5721 5724 5727 5731 5735 5739 5744 5748 5753 5758 5763 5768 5773
5811 5806 5800 5794 5789 5782 5776 5769 5763 5756 5750 5744 5739 5734 5729 5724 5719 5715 5712 5708 5704 5702 5699 5697 5697 5697 5697 5698 5700 5702 5705 5708 5712 5716 5721 5725 5730 5735 5741 5746 5752 5757 5762
5806 5800 5794 5788 5781 5774 5767 5760 5753 5747 5740 5733 5727 5722 5716 5711 5706 5701 5697 5692 5689 5686 5683 5681 5680 5680 5680 5681 5683 5685 5688 5692 5696 5700 5705 5710 5715 5720 5726 5732 5738 5745 5750
5800 5794 5787 5780 5773 5766 5759 5751 5744 5736 5729 5722 5716 5710 5704 5698 5692 5687 5681 5676 5672 5669 5666 5663 5662 5662 5662 5663 5665 5667 5670 5674 5678 5683 5688 5693 5699 5705 5711 5717 5724 5730 5737
5794 5787 5780 5773 5765 5757 5749 5741 5734 5726 5719 5712 5704 5698 5691 5684 5678 5672 5666 5660 5655 5651 5647 5645 5643 5642 5643 5644 5646 5648 5651 5655 5660 5665 5670 5676 5682 5689 5695 5702 5709 5716 5723
5788 5780 5773 5764 5756 5748 5740 5732 5724 5716 5708 5701 5693 5686 5678 5671 5663 5657 5650 5644 5638 5633 5628 5625 5623 5622 5622 5624 5626 5628 5631 5635 5640 5645 5651 5657 5663 5670 5678 5685 5693 5701 5708
5782 5774 5765 5756 5747 5739 5731 5722 5714 5706 5698 5690 5682 5673 5665 5658 5650 5642 5635 5628 5622 5616 5611 5607 5605 5603 5602 5603 5605 5607 5611 5616 5621 5626 5632 5638 5644 5652 5660 5668 5676 5685 5693
5774 5766 5757 5747 5738 5730 5721 5713 5705 5696 5688 5679 5670 5661 5653 5645 5636 5628 5620 5613 5605 5599 5594 5590 5586 5585 5584 5584 5585 5588 5592 5598 5603 5609 5615 5620 5627 5634 5642 5651 5660 5668 5677
5767 5758 5749 5739 5730 5721 5713 5704 5695 5686 5677 5668 5659 5650 5641 5632 5624 5615 5606 5598 5590 5583 5578 5574 5570 5568 5566 5566 5567 5571 5575 5581 5587 5593 5599 5605 5611 5618 5626 5634 5643 5651 5661
5759 5750 5741 5731 5722 5713 5704 5695 5686 5677 5667 5658 5648 5639 5630 5621 5612 5602 5593 5584 5577 5570 5564 5559 5555 5552 5551 5550 5552 5555 5560 5566 5572 5579 5585 5591 5598 5605 5612 5620 5629 5637 5645
5752 5743 5733 5724 5715 5706 5696 5687 5678 5668 5658 5648 5639 5629 5619 5610 5600 5591 5581 5573 5565 5558 5552 5547 5542 5540 5538 5538 5539 5543 5548 5553 5560 5566 5573 5580 5586 5592 5599 5607 5615 5623 5631
5745 5736 5726 5717 5707 5698 5689 5679 5670 5660 5650 5640 5630 5620 5610 5600 5590 5581 5572 5563 5555 5548 5542 5537 5533 5530 5528 5528 5530 5533 5538 5543 5549 5555 5562 5569 5575 5582 5589 5596 5604 5611 5619
5739 5729 5720 5710 5700 5691 5682 5673 5663 5653 5643 5633 5622 5612 5602 5592 5582 5573 5564 5556 5548 5541 5535 5529 5525 5522 5520 5521 5522 5525 5530 5535 5540 5546 5553 5559 5566 5573 5580 5587 5594 5601 5609
5733 5723 5714 5704 5694 5685 5675 5666 5656 5646 5636 5626 5616 5605 5595 5585 5575 5567 5558 5550 5543 5536 5529 5524 5519 5516 5514 5514 5516 5519 5523 5528 5533 5539 5545 5552 5558 5565 5572 5579 5586 5593 5600
5727 5717 5708 5698 5689 5679 5669 5660 5650 5640 5631 5620 5610 5599 5589 5580 5570 5561 5553 5546 5538 5532 5525 5520 5516 5512 5511 5510 5511 5514 5517 5522 5527 5533 5539 5545 5552 5559 5566 5572 5579 5586 5593
5721 5711 5702 5692 5683 5674 5664 5655 5645 5636 5626 5615 5605 5595 5585 5576 5566 5558 5550 5542 5535 5529 5523 5518 5514 5511 5509 5508 5509 5511 5514 5518 5523 5529 5535 5541 5548 5554 5561 5567 5573 5580 5586
5715 5706 5696 5687 5678 5669 5659 5650 5640 5631 5621 5612 5602 5592 5582 5573 5563 5555 5547 5540 5533 5527 5522 5517 5513 5510 5508 5507 5508 5509 5512 5516 5521 5526 5532 5538 5544 5550 5556 5562 5568 5574 5580